period_start,C,m1,H,J0,J1,J2,J3,J4,J5,JA,JB,JC,JD,JJ,JK,JN,#
2015-02-06 00:00:28,0.13,1.17,0.00,17.09,22.45,25.40,5.03,27.41,1035.17,2048.01,2984.05,3006.43,3253.50,350.07,361.14,8.04,0000 0000 0000 0000 000000
2015-02-06 00:05:29,0.13,1.18,0.00,17.05,22.44,25.33,4.99,27.26,1035.17,2048.00,2982.37,3005.14,3252.02,350.21,361.49,8.07,0000 0000 0000 0000 000000
2015-02-06 00:10:31,0.17,1.18,0.00,17.01,22.44,25.25,5.01,27.34,1035.17,2048.00,2980.61,3003.82,3250.65,349.96,361.40,8.10,0000 0000 0000 0000 000000
2015-02-06 00:15:32,0.13,1.19,0.00,17.16,22.44,25.39,4.98,27.48,1035.18,2048.01,2978.92,3002.71,3249.46,349.90,361.16,8.13,0000 0000 0000 0000 000000
2015-02-06 00:20:34,0.14,1.19,0.00,17.07,22.44,25.29,5.03,27.57,1035.18,2048.00,2977.32,3001.47,3248.06,349.80,360.99,8.16,0000 0000 0000 0000 000000
2015-02-06 00:25:35,0.15,1.20,0.00,16.99,22.43,25.31,5.01,27.42,1035.17,2048.00,2975.69,3000.30,3246.71,350.31,361.65,8.19,0000 0000 0000 0000 000000
2015-02-06 00:30:37,0.14,1.20,0.00,17.19,22.42,25.33,4.99,27.52,1035.17,2048.00,2973.92,2999.09,3245.41,350.04,361.06,8.22,0000 0000 0000 0000 000000
2015-02-06 00:35:38,0.15,1.21,0.00,17.07,22.42,25.30,4.97,27.32,1035.18,2048.00,2972.16,2997.81,3244.04,349.68,361.10,8.25,0000 0000 0000 0000 000000
2015-02-06 00:40:39,0.17,1.21,0.00,17.01,22.42,25.28,5.05,27.49,1035.20,2048.01,2970.23,2996.53,3242.73,350.37,361.73,8.27,0000 0000 0000 0000 000000
2015-02-06 00:45:41,0.14,1.21,0.00,17.13,22.42,25.37,4.95,27.31,1035.24,2048.01,2968.55,2995.41,3241.60,349.61,360.59,8.30,0000 0000 0000 0000 000000
2015-02-06 00:50:42,0.13,1.22,0.00,17.10,22.42,25.32,4.92,27.37,1035.20,2048.01,2966.85,2994.19,3240.35,349.41,360.85,8.33,0000 0000 0000 0000 000000
2015-02-06 00:55:43,0.15,1.22,0.00,16.91,22.42,25.20,4.99,27.34,1035.31,2048.01,2965.13,2992.90,3238.94,350.11,361.85,8.36,0000 0000 0000 0000 000000
2015-02-06 01:00:45,0.16,1.23,0.00,17.13,22.42,25.36,4.98,27.48,1035.38,2048.01,2963.45,2991.64,3237.53,349.64,360.73,8.39,0000 0000 0000 0000 000000
2015-02-06 01:05:46,0.14,1.23,0.00,17.19,22.42,25.41,5.01,27.42,1035.42,2048.01,2961.82,2990.44,3236.11,349.96,361.54,8.42,0000 0000 0000 0000 000000
2015-02-06 01:10:47,0.15,1.24,0.00,16.99,22.42,25.36,4.97,27.48,1035.58,2048.01,2960.27,2989.17,3234.70,350.17,361.67,8.45,0000 0000 0000 0000 000000
2015-02-06 01:15:48,0.15,1.24,0.00,17.00,22.42,25.35,5.01,27.34,1035.30,2048.01,2958.58,2987.93,3233.38,350.11,361.57,8.48,0000 0000 0000 0000 000000
2015-02-06 01:20:50,0.15,1.25,0.00,17.12,22.42,25.31,5.02,27.43,1035.32,2048.02,2957.00,2986.73,3231.99,349.78,360.88,8.51,0000 0000 0000 0000 000000
2015-02-06 01:25:51,0.15,1.25,0.00,17.02,22.42,25.29,5.00,27.43,1035.54,2048.01,2955.36,2985.53,3230.60,349.84,361.33,8.54,0000 0000 0000 0000 000000
2015-02-06 01:30:52,0.14,1.25,0.00,17.03,22.42,25.27,5.02,27.38,1035.54,2048.01,2953.70,2984.33,3229.16,350.34,361.92,8.57,0000 0000 0000 0000 000000
2015-02-06 01:35:54,0.16,1.26,0.00,17.16,22.42,25.35,5.01,27.41,1035.62,2048.01,2951.98,2983.02,3227.69,350.23,361.46,8.60,0000 0000 0000 0000 000000
2015-02-06 01:40:55,0.16,1.26,0.00,17.09,22.42,25.39,4.96,27.49,1035.65,2048.00,2950.21,2981.69,3226.33,349.71,360.94,8.63,0000 0000 0000 0000 000000
2015-02-06 01:45:56,0.15,1.27,0.00,16.96,22.41,25.30,4.94,27.37,1035.66,2048.01,2948.47,2980.55,3224.92,349.81,361.42,8.66,0000 0000 0000 0000 000000
2015-02-06 01:50:57,0.14,1.27,0.00,17.17,22.40,25.40,5.01,27.46,1035.67,2048.01,2946.73,2979.32,3223.74,350.46,361.81,8.68,0000 0000 0000 0000 000000
2015-02-06 01:55:58,0.15,1.28,0.00,17.12,22.40,25.35,5.03,27.46,1035.66,2048.00,2944.97,2978.04,3222.41,349.78,361.09,8.71,0000 0000 0000 0000 000000
2015-02-06 02:00:59,0.14,1.28,0.00,16.96,22.40,25.23,5.00,27.38,1035.66,2048.00,2943.42,2976.85,3221.11,350.09,361.66,8.74,0000 0000 0000 0000 000000
2015-02-06 02:06:00,0.15,1.29,0.00,17.07,22.40,25.36,4.95,27.40,1035.67,2048.01,2941.77,2975.71,3219.78,349.82,361.14,8.77,0000 0000 0000 0000 000000
2015-02-06 02:11:02,0.15,1.29,0.00,17.21,22.40,25.34,4.97,27.24,1035.73,2048.00,2940.00,2974.41,3218.49,350.12,361.48,8.80,0000 0000 0000 0000 000000
2015-02-06 02:16:03,0.13,1.30,0.00,17.05,22.39,25.34,5.03,27.37,1035.70,2048.00,2938.36,2973.19,3217.15,350.47,361.86,8.83,0000 0000 0000 0000 000000
2015-02-06 02:21:04,0.15,1.30,0.00,17.07,22.39,25.31,4.95,27.43,1035.75,2048.01,2936.74,2972.01,3215.77,349.47,360.93,8.86,0000 0000 0000 0000 000000
2015-02-06 02:26:06,0.15,1.30,0.00,17.13,22.39,25.34,4.94,27.40,1035.68,2048.01,2935.21,2970.80,3214.48,349.54,361.03,8.89,0000 0000 0000 0000 000000
2015-02-06 02:31:07,0.15,1.31,0.00,17.02,22.39,25.29,5.01,27.37,1035.82,2048.02,2933.63,2969.64,3213.15,349.88,361.28,8.92,0000 0000 0000 0000 000000
2015-02-06 02:36:08,0.14,1.31,0.00,17.08,22.39,25.28,4.95,27.38,1035.85,2048.02,2931.95,2968.50,3211.84,349.25,360.84,8.95,0000 0000 0000 0000 000000
2015-02-06 02:41:09,0.15,1.32,0.00,17.17,22.39,25.31,4.98,27.52,1035.83,2048.01,2930.15,2967.29,3210.51,349.74,361.03,8.98,0000 0000 0000 0000 000000
2015-02-06 02:46:11,0.13,1.32,0.00,17.07,22.39,25.31,5.07,27.28,1035.73,2048.02,2928.52,2966.07,3209.35,350.57,362.16,9.01,0000 0000 0000 0000 000000
2015-02-06 02:51:12,0.14,1.33,0.00,17.08,22.39,25.36,4.99,27.31,1035.86,2048.01,2926.87,2964.90,3208.08,349.73,361.18,9.04,0000 0000 0000 0000 000000
2015-02-06 02:56:13,0.16,1.33,0.00,17.19,22.39,25.35,5.00,27.46,1036.07,2048.01,2925.19,2963.69,3206.74,349.67,361.05,9.07,0000 0000 0000 0000 000000
2015-02-06 03:01:15,0.14,1.34,0.00,17.06,22.39,25.36,4.95,27.48,1036.15,2048.00,2923.56,2962.53,3205.49,349.57,361.15,9.09,0000 0000 0000 0000 000000
2015-02-06 03:06:16,0.15,1.34,0.00,17.07,22.39,25.27,4.96,27.48,1036.15,2048.01,2921.80,2961.26,3204.11,349.62,361.24,9.12,0000 0000 0000 0000 000000
2015-02-06 03:11:17,0.14,1.34,0.00,17.21,22.39,25.46,4.97,27.47,1036.15,2048.01,2920.13,2960.10,3202.92,349.96,361.33,9.15,0000 0000 0000 0000 000000
2015-02-06 03:16:18,0.15,1.35,0.00,17.17,22.39,25.44,4.94,27.50,1036.15,2048.01,2918.68,2958.89,3201.56,349.42,360.80,9.18,0000 0000 0000 0000 000000
2015-02-06 03:21:19,0.16,1.35,0.00,17.12,22.40,25.37,5.02,27.32,1036.15,2048.01,2916.98,2957.64,3200.16,350.19,361.66,9.21,0000 0000 0000 0000 000000
2015-02-06 03:26:21,0.14,1.36,0.00,17.21,22.41,25.39,4.98,27.38,1036.19,2048.01,2915.19,2956.48,3198.91,349.94,361.35,9.24,0000 0000 0000 0000 000000
2015-02-06 03:31:22,0.15,1.36,0.00,17.11,22.42,25.44,5.03,27.49,1036.27,2048.00,2913.40,2955.22,3197.66,349.96,361.48,9.27,0000 0000 0000 0000 000000
2015-02-06 03:36:23,0.14,1.37,0.00,17.18,22.42,25.41,4.95,27.42,1036.49,2048.01,2911.76,2953.96,3196.43,349.22,361.16,9.30,0000 0000 0000 0000 000000
2015-02-06 03:41:24,0.17,1.37,0.00,17.27,22.42,25.49,5.04,27.63,1036.53,2048.00,2910.28,2952.65,3194.83,350.36,361.86,9.33,0000 0000 0000 0000 000000
2015-02-06 03:46:25,0.14,1.38,0.00,17.11,22.42,25.42,5.00,27.45,1036.52,2048.00,2908.85,2951.58,3193.46,349.92,361.71,9.36,0000 0000 0000 0000 000000
2015-02-06 03:51:27,0.14,1.38,0.00,17.18,22.42,25.45,5.02,27.43,1036.54,2048.01,2907.31,2950.42,3192.07,350.38,361.78,9.39,0000 0000 0000 0000 000000
2015-02-06 03:56:28,0.15,1.38,0.00,17.16,22.43,25.46,5.02,27.49,1036.63,2048.00,2905.55,2949.21,3190.75,350.13,361.75,9.42,0000 0000 0000 0000 000000
2015-02-06 04:01:29,0.13,1.39,0.00,17.09,22.44,25.42,5.05,27.38,1036.64,2048.00,2903.98,2948.05,3189.53,350.53,362.36,9.45,0000 0000 0000 0000 000000
2015-02-06 04:06:31,0.14,1.39,0.00,17.25,22.44,25.49,5.02,27.45,1036.64,2048.00,2902.50,2946.93,3188.30,349.99,361.57,9.48,0000 0000 0000 0000 000000
2015-02-06 04:11:32,0.17,1.40,0.00,17.17,22.44,25.47,5.07,27.50,1036.64,2048.00,2900.83,2945.72,3186.91,350.14,361.74,9.50,0000 0000 0000 0000 000000
2015-02-06 04:16:33,0.16,1.40,0.00,17.16,22.44,25.42,5.01,27.45,1036.64,2048.00,2898.83,2944.50,3185.64,349.79,361.51,9.53,0000 0000 0000 0000 000000
2015-02-06 04:21:34,0.13,1.41,0.00,17.29,22.45,25.57,5.00,27.52,1036.64,2047.99,2897.23,2943.39,3184.44,349.65,361.06,9.56,0000 0000 0000 0000 000000
2015-02-06 04:26:36,0.14,1.41,0.00,17.18,22.46,25.48,5.01,27.41,1036.64,2047.99,2895.76,2942.16,3183.05,350.13,361.93,9.59,0000 0000 0000 0000 000000
2015-02-06 04:31:37,0.18,1.42,0.00,17.25,22.47,25.46,4.95,27.51,1036.66,2047.97,2894.06,2940.82,3181.55,349.68,361.22,9.62,0000 0000 0000 0000 000000
2015-02-06 04:36:38,0.15,1.42,0.00,17.20,22.49,25.44,5.03,27.47,1036.67,2047.97,2892.26,2939.62,3180.28,349.85,361.17,9.65,0000 0000 0000 0000 000000
2015-02-06 04:41:39,0.16,1.43,0.00,17.14,22.49,25.39,4.97,27.54,1036.65,2047.93,2890.46,2938.28,3178.83,349.62,361.36,9.68,0000 0000 0000 0000 000000
2015-02-06 04:46:41,0.15,1.43,0.00,17.24,22.50,25.42,4.98,27.47,1036.65,2047.92,2888.77,2937.09,3177.53,350.17,361.66,9.71,0000 0000 0000 0000 000000
2015-02-06 04:51:42,0.14,1.43,0.00,17.26,22.52,25.52,5.04,27.48,1036.64,2047.92,2887.13,2935.87,3176.22,349.90,361.34,9.74,0000 0000 0000 0000 000000
2015-02-06 04:56:44,0.16,1.44,0.00,17.20,22.52,25.44,4.95,27.38,1036.66,2047.91,2885.54,2934.64,3174.88,350.12,361.91,9.77,0000 0000 0000 0000 000000
2015-02-06 05:01:45,0.13,1.44,0.00,17.29,22.53,25.56,5.00,27.49,1036.66,2047.84,2883.82,2933.44,3173.61,349.89,361.33,9.80,0000 0000 0000 0000 000000
2015-02-06 05:06:46,0.14,1.45,0.00,17.24,22.54,25.54,4.99,27.56,1036.70,2047.86,2882.07,2932.28,3172.41,349.78,361.41,9.83,0000 0000 0000 0000 000000
2015-02-06 05:11:47,0.11,1.45,0.00,17.15,22.54,25.51,5.07,27.64,1036.87,2047.62,2880.38,2930.92,3170.98,350.07,361.61,9.86,0000 0000 0000 0000 000000
2015-02-06 05:16:48,0.19,1.46,0.00,17.34,22.55,25.49,5.10,27.49,1037.08,2047.71,2878.82,2929.71,3169.67,350.17,361.41,9.89,0000 0000 0000 0000 000000
2015-02-06 05:21:49,0.15,1.46,0.00,17.20,22.57,25.53,4.90,27.62,1037.12,2047.84,2877.51,2928.63,3168.43,349.63,361.25,9.91,0000 0000 0000 0000 000000
2015-02-06 05:26:50,0.13,1.46,0.00,17.25,22.57,25.53,5.01,27.43,1037.13,2047.71,2875.83,2927.42,3166.94,349.74,361.28,9.94,0000 0000 0000 0000 000000
2015-02-06 05:31:51,0.11,1.47,0.00,17.30,22.57,25.52,5.03,27.58,1037.13,2047.54,2874.24,2926.19,3165.55,349.94,361.26,9.97,0000 0000 0000 0000 000000
2015-02-06 05:36:53,0.13,1.47,0.00,17.25,22.58,25.56,5.03,27.52,1037.13,2047.41,2872.59,2924.89,3164.24,350.26,361.85,10.00,0000 0000 0000 0000 000000
2015-02-06 05:41:54,0.14,1.48,0.00,17.36,22.59,25.57,5.02,27.59,1037.13,2047.14,2870.83,2923.60,3162.75,349.51,361.08,10.03,0000 0000 0000 0000 000000
2015-02-06 05:46:55,0.14,1.48,0.00,17.33,22.59,25.57,5.03,27.46,1037.13,2047.09,2869.34,2922.44,3161.44,349.95,361.61,10.06,0000 0000 0000 0000 000000
2015-02-06 05:51:56,0.14,1.49,0.00,17.28,22.59,25.57,4.98,27.46,1037.13,2047.10,2867.79,2921.30,3160.10,350.34,362.14,10.09,0000 0000 0000 0000 000000
2015-02-06 05:56:58,0.14,1.49,0.00,17.42,22.59,25.62,5.04,27.52,1037.13,2047.09,2866.26,2920.12,3158.79,349.65,361.30,10.12,0000 0000 0000 0000 000000
2015-02-06 06:01:59,0.15,1.49,0.00,17.33,22.59,25.66,5.01,27.43,1037.18,2047.07,2864.64,2918.98,3157.49,349.68,361.31,10.15,0000 0000 0000 0000 000000
2015-02-06 06:07:00,0.15,1.50,0.00,17.26,22.60,25.52,5.05,27.53,1037.24,2047.09,2862.97,2917.78,3156.28,350.03,361.91,10.18,0000 0000 0000 0000 000000
2015-02-06 06:12:01,0.15,1.50,0.00,17.42,22.60,25.62,4.97,27.48,1037.44,2047.03,2861.39,2916.58,3154.81,350.35,361.93,10.21,0000 0000 0000 0000 000000
2015-02-06 06:17:03,0.15,1.51,0.00,17.34,22.60,25.63,5.06,27.51,1037.53,2047.01,2859.76,2915.36,3153.53,350.00,361.47,10.24,0000 0000 0000 0000 000000
2015-02-06 06:22:04,0.13,1.51,0.00,17.23,22.60,25.61,5.03,27.44,1037.61,2047.06,2858.27,2914.27,3152.39,349.93,361.92,10.27,0000 0000 0000 0000 000000
2015-02-06 06:27:05,0.15,1.52,0.00,17.33,22.60,25.62,4.99,27.52,1037.61,2047.05,2856.62,2913.04,3151.06,349.71,361.39,10.30,0000 0000 0000 0000 000000
2015-02-06 06:32:06,0.15,1.52,0.00,17.31,22.61,25.64,5.04,27.60,1037.61,2047.05,2854.97,2911.89,3149.73,349.81,361.38,10.32,0000 0000 0000 0000 000000
2015-02-06 06:37:08,0.16,1.53,0.00,17.26,22.61,25.51,5.00,27.60,1037.61,2047.03,2853.41,2910.65,3148.50,349.78,361.74,10.35,0000 0000 0000 0000 000000
2015-02-06 06:42:09,0.16,1.53,0.00,17.31,22.62,25.54,4.94,27.60,1037.61,2047.02,2851.59,2909.36,3147.12,349.97,361.85,10.38,0000 0000 0000 0000 000000
2015-02-06 06:47:10,0.15,1.53,0.00,17.25,22.62,25.59,4.95,27.45,1037.61,2047.01,2849.85,2908.17,3145.76,349.56,361.46,10.41,0000 0000 0000 0000 000000
2015-02-06 06:52:11,0.16,1.54,0.00,17.37,22.62,25.57,5.03,27.62,1037.61,2047.03,2848.18,2906.88,3144.54,349.82,361.50,10.44,0000 0000 0000 0000 000000
2015-02-06 06:57:12,0.17,1.54,0.00,17.35,22.62,25.57,4.95,27.38,1037.61,2047.03,2846.40,2905.62,3143.09,349.82,361.36,10.47,0000 0000 0000 0000 000000
2015-02-06 07:02:13,0.17,1.55,0.00,17.25,22.62,25.59,5.02,27.52,1037.61,2047.04,2844.69,2904.41,3141.77,350.15,362.01,10.50,0000 0000 0000 0000 000000
2015-02-06 07:07:15,0.17,1.55,0.00,17.27,22.62,25.63,5.07,27.47,1037.61,2047.04,2842.83,2903.05,3140.44,350.31,362.24,10.53,0000 0000 0000 0000 000000
2015-02-06 07:12:16,0.16,1.56,0.00,17.27,22.62,25.71,4.99,27.44,1037.64,2047.04,2841.17,2901.75,3138.94,349.98,362.05,10.56,0000 0000 0000 0000 000000
2015-02-06 07:17:17,0.16,1.56,0.00,17.24,22.62,25.60,5.01,27.55,1037.66,2047.03,2839.50,2900.46,3137.49,349.62,361.78,10.59,0000 0000 0000 0000 000000
2015-02-06 07:22:18,0.15,1.57,0.00,17.39,22.63,25.62,5.02,27.52,1037.72,2047.01,2837.83,2899.19,3136.02,349.54,361.27,10.62,0000 0000 0000 0000 000000
2015-02-06 07:27:19,0.16,1.57,0.00,17.30,22.64,25.61,5.01,27.45,1037.81,2047.03,2836.36,2897.89,3134.73,349.50,361.35,10.65,0000 0000 0000 0000 000000
2015-02-06 07:32:21,0.17,1.58,0.00,17.32,22.64,25.62,4.98,27.47,1038.05,2047.01,2834.54,2896.57,3133.33,350.01,361.92,10.68,0000 0000 0000 0000 000000
2015-02-06 07:37:22,0.16,1.58,0.00,17.35,22.64,25.63,5.02,27.55,1038.08,2047.00,2832.73,2895.31,3131.88,350.18,362.13,10.71,0000 0000 0000 0000 000000
2015-02-06 07:42:23,0.18,1.59,0.00,17.28,22.64,25.55,5.02,27.56,1038.06,2047.00,2830.78,2893.92,3130.44,350.12,362.41,10.73,0000 0000 0000 0000 000000
2015-02-06 07:47:24,0.16,1.59,0.00,17.30,22.64,25.62,4.96,27.45,1038.09,2047.00,2829.12,2892.68,3129.14,349.78,361.78,10.76,0000 0000 0000 0000 000000
2015-02-06 07:52:26,0.16,1.60,0.00,17.29,22.64,25.57,5.00,27.48,1038.08,2047.00,2827.44,2891.46,3127.74,349.45,361.68,10.79,0000 0000 0000 0000 000000
2015-02-06 07:57:27,0.15,1.60,0.00,17.33,22.64,25.62,5.03,27.57,1038.09,2047.00,2825.75,2890.22,3126.45,349.90,361.96,10.82,0000 0000 0000 0000 000000
2015-02-06 08:02:28,0.16,1.61,0.00,17.34,22.65,25.74,5.04,27.56,1038.10,2047.01,2824.06,2888.90,3125.09,349.84,361.81,10.85,0000 0000 0000 0000 000000
2015-02-06 08:07:30,0.16,1.61,0.00,17.29,22.65,25.64,5.00,27.54,1038.10,2047.00,2822.30,2887.67,3123.74,350.18,362.04,10.88,0000 0000 0000 0000 000000
2015-02-06 08:12:31,0.16,1.62,0.00,17.40,22.66,25.64,5.06,27.41,1038.11,2047.00,2820.63,2886.47,3122.49,350.54,362.38,10.91,0000 0000 0000 0000 000000
2015-02-06 08:17:32,0.15,1.62,0.00,17.31,22.67,25.67,5.06,27.52,1038.12,2047.00,2819.12,2885.23,3120.99,350.09,362.08,10.94,0000 0000 0000 0000 000000
2015-02-06 08:22:34,0.16,1.63,0.00,17.32,22.67,25.57,4.98,27.51,1038.12,2047.00,2817.46,2883.97,3119.65,349.46,361.19,10.97,0000 0000 0000 0000 000000
2015-02-06 08:27:35,0.16,1.63,0.00,17.39,22.67,25.61,5.01,27.58,1038.12,2047.00,2815.83,2882.75,3118.34,349.98,361.90,11.00,0000 0000 0000 0000 000000
2015-02-06 08:32:36,0.15,1.64,0.00,17.29,22.67,25.67,5.06,27.56,1038.11,2047.00,2814.28,2881.52,3116.93,350.25,362.06,11.03,0000 0000 0000 0000 000000
2015-02-06 08:37:38,0.16,1.64,0.00,17.26,22.67,25.58,5.01,27.71,1038.20,2047.00,2812.61,2880.35,3115.56,350.21,362.33,11.06,0000 0000 0000 0000 000000
2015-02-06 08:42:39,0.13,1.65,0.00,17.39,22.67,25.62,5.01,27.68,1038.36,2047.00,2811.08,2879.12,3114.18,350.21,362.20,11.09,0000 0000 0000 0000 000000
2015-02-06 08:47:40,0.15,1.65,0.00,17.30,22.67,25.62,5.03,27.52,1038.57,2047.00,2809.62,2878.15,3112.86,350.21,362.36,11.12,0000 0000 0000 0000 000000
2015-02-06 08:52:41,0.18,1.65,0.00,17.39,22.67,25.58,5.03,27.61,1038.59,2047.00,2807.83,2876.86,3111.56,350.32,362.25,11.14,0000 0000 0000 0000 000000
2015-02-06 08:57:43,0.15,1.66,0.00,17.34,22.67,25.62,5.04,27.55,1038.61,2047.00,2806.15,2875.67,3110.26,350.12,362.19,11.17,0000 0000 0000 0000 000000
2015-02-06 09:02:44,0.17,1.66,0.00,17.35,22.67,25.57,4.96,27.44,1038.65,2047.00,2804.46,2874.40,3108.79,349.44,361.55,11.20,0000 0000 0000 0000 000000
2015-02-06 09:07:45,0.16,1.67,0.00,17.38,22.67,25.68,5.09,27.55,1038.72,2047.00,2802.71,2873.08,3107.42,350.28,362.24,11.23,0000 0000 0000 0000 000000
2015-02-06 09:12:46,0.16,1.67,0.00,17.31,22.68,25.62,5.02,27.50,1039.01,2047.00,2800.99,2871.80,3106.08,349.65,362.05,11.26,0000 0000 0000 0000 000000
2015-02-06 09:17:47,0.17,1.68,0.00,17.43,22.68,25.64,4.98,27.53,1038.96,2047.00,2799.29,2870.57,3104.73,349.70,362.01,11.29,0000 0000 0000 0000 000000
2015-02-06 09:22:49,0.17,1.68,0.00,17.38,22.69,25.69,5.05,27.48,1039.03,2047.00,2797.40,2869.22,3103.27,349.87,362.09,11.32,0000 0000 0000 0000 000000
2015-02-06 09:27:50,0.20,1.69,0.00,17.28,22.69,25.57,4.97,27.49,1039.04,2047.00,2795.49,2867.76,3101.69,349.95,362.31,11.35,0000 0000 0000 0000 000000
2015-02-06 09:32:52,0.18,1.70,0.00,17.40,22.69,25.54,5.01,27.42,1038.97,2047.00,2793.66,2866.33,3100.08,350.41,362.59,11.38,0000 0000 0000 0000 000000
2015-02-06 09:37:53,0.18,1.70,0.00,17.38,22.69,25.63,4.96,27.57,1038.85,2047.00,2791.83,2864.92,3098.55,350.14,361.96,11.41,0000 0000 0000 0000 000000
2015-02-06 09:42:54,0.20,1.71,0.00,17.32,22.69,25.59,4.99,27.66,1038.67,2047.00,2789.79,2863.45,3096.89,350.15,362.28,11.44,0000 0000 0000 0000 000000
2015-02-06 09:47:56,0.16,1.71,0.00,17.38,22.69,25.62,5.06,27.46,1038.76,2047.00,2787.98,2862.01,3095.43,350.50,362.47,11.47,0000 0000 0000 0000 000000
2015-02-06 09:52:57,0.17,1.72,0.00,17.34,22.69,25.65,5.00,27.48,1039.06,2047.00,2786.45,2860.74,3093.90,349.18,361.43,11.50,0000 0000 0000 0000 000000
2015-02-06 09:57:58,0.17,1.72,0.00,17.39,22.69,25.57,5.03,27.55,1039.08,2047.00,2784.69,2859.49,3092.45,349.96,362.22,11.53,0000 0000 0000 0000 000000
2015-02-06 10:03:00,0.17,1.73,0.00,17.42,22.69,25.65,5.00,27.44,1039.08,2047.00,2782.74,2858.14,3091.14,350.38,362.71,11.55,0000 0000 0000 0000 000000
2015-02-06 10:08:01,0.19,1.73,0.00,17.29,22.69,25.54,5.03,27.47,1039.08,2047.00,2780.83,2856.71,3089.68,350.50,362.98,11.58,0000 0000 0000 0000 000000
2015-02-06 10:13:02,0.16,1.74,0.00,17.35,22.69,25.63,5.00,27.52,1039.08,2047.00,2779.15,2855.47,3088.28,350.06,362.33,11.61,0000 0000 0000 0000 000000
2015-02-06 10:18:04,0.18,1.74,0.00,17.35,22.69,25.68,5.03,27.63,1039.08,2047.00,2777.36,2854.12,3086.75,350.25,362.54,11.64,0000 0000 0000 0000 000000
2015-02-06 10:23:05,0.18,1.75,0.00,17.35,22.69,25.64,4.96,27.45,1039.08,2047.00,2775.68,2852.73,3085.25,349.84,362.24,11.67,0000 0000 0000 0000 000000
2015-02-06 10:28:06,0.18,1.75,0.00,17.41,22.69,25.65,4.97,27.48,1039.09,2047.00,2773.78,2851.42,3083.76,349.55,361.68,11.70,0000 0000 0000 0000 000000
2015-02-06 10:33:08,0.16,1.76,0.00,17.37,22.69,25.67,4.98,27.63,1039.08,2047.00,2772.00,2850.13,3082.43,350.46,362.46,11.73,0000 0000 0000 0000 000000
2015-02-06 10:38:09,0.17,1.76,0.00,17.38,22.69,25.63,5.00,27.60,1039.10,2047.00,2770.21,2848.81,3081.09,350.19,362.50,11.76,0000 0000 0000 0000 000000
2015-02-06 10:43:10,0.18,1.77,0.00,17.40,22.69,25.68,4.98,27.68,1039.10,2047.00,2768.42,2847.49,3079.62,350.14,362.34,11.79,0000 0000 0000 0000 000000
2015-02-06 10:48:11,0.15,1.77,0.00,17.33,22.69,25.61,5.03,27.68,1039.09,2047.00,2766.79,2846.32,3078.37,350.10,362.39,11.82,0000 0000 0000 0000 000000
2015-02-06 10:53:12,0.16,1.78,0.00,17.39,22.69,25.62,5.03,27.56,1039.08,2047.00,2765.20,2845.05,3076.99,350.21,362.58,11.85,0000 0000 0000 0000 000000
2015-02-06 10:58:14,0.17,1.78,0.00,17.38,22.69,25.67,4.97,27.43,1039.09,2047.00,2763.54,2843.83,3075.61,349.62,361.85,11.88,0000 0000 0000 0000 000000
2015-02-06 11:03:15,0.17,1.79,0.00,17.35,22.69,25.63,5.00,27.66,1039.09,2047.00,2761.86,2842.61,3074.37,350.11,362.22,11.91,0000 0000 0000 0000 000000
2015-02-06 11:08:17,0.14,1.79,0.00,17.40,22.69,25.67,4.99,27.77,1039.09,2047.00,2760.31,2841.48,3073.14,349.85,362.19,11.94,0000 0000 0000 0000 000000
2015-02-06 11:13:18,0.16,1.80,0.00,17.29,22.70,25.65,5.08,27.52,1039.09,2047.00,2758.73,2840.28,3071.77,350.46,362.81,11.96,0000 0000 0000 0000 000000
2015-02-06 11:18:19,0.15,1.80,0.00,17.34,22.69,25.66,5.04,27.63,1039.10,2047.00,2757.11,2839.07,3070.54,350.02,362.38,11.99,0000 0000 0000 0000 000000
2015-02-06 11:23:21,0.16,1.81,0.00,17.37,22.69,25.75,4.90,27.70,1039.09,2047.00,2755.54,2837.82,3069.22,348.97,361.46,12.02,0000 0000 0000 0000 000000
2015-02-06 11:28:22,0.17,1.81,0.00,17.22,22.69,25.56,5.03,27.72,1039.18,2047.00,2753.89,2836.60,3067.84,349.89,362.40,12.05,0000 0000 0000 0000 000000
2015-02-06 11:33:23,0.15,1.82,0.00,17.35,22.69,25.63,5.04,27.71,1039.32,2047.00,2752.30,2835.45,3066.62,349.65,361.96,12.08,0000 0000 0000 0000 000000
2015-02-06 11:38:25,0.15,1.82,0.00,17.25,22.69,25.66,4.96,27.84,1039.27,2047.00,2750.80,2834.29,3065.37,349.72,362.30,12.11,0000 0000 0000 0000 000000
2015-02-06 11:43:26,0.13,1.83,0.00,17.35,22.69,25.62,4.99,27.68,1039.44,2047.00,2749.44,2833.18,3064.16,349.80,362.24,12.14,0000 0000 0000 0000 000000
2015-02-06 11:48:27,0.16,1.83,0.00,17.36,22.69,25.66,4.94,27.59,1039.50,2047.00,2747.94,2832.06,3062.88,349.70,362.24,12.17,0000 0000 0000 0000 000000
2015-02-06 11:53:28,0.16,1.84,0.00,17.29,22.69,25.62,5.00,27.57,1039.56,2047.00,2746.36,2830.85,3061.57,350.48,362.86,12.20,0000 0000 0000 0000 000000
2015-02-06 11:58:30,0.16,1.84,0.00,17.40,22.69,25.66,5.00,27.71,1039.56,2047.00,2744.74,2829.68,3060.38,350.31,362.67,12.23,0000 0000 0000 0000 000000
2015-02-06 12:03:31,0.14,1.84,0.00,17.33,22.69,25.68,4.91,27.62,1039.55,2047.00,2743.26,2828.58,3059.11,349.74,362.22,12.26,0000 0000 0000 0000 000000
2015-02-06 12:08:33,0.16,1.85,0.00,17.25,22.69,25.62,5.02,27.66,1039.50,2047.00,2741.69,2827.38,3057.80,350.28,362.52,12.29,0000 0000 0000 0000 000000
2015-02-06 12:13:34,0.13,1.85,0.00,17.31,22.69,25.67,4.97,27.71,1039.27,2047.00,2740.23,2826.38,3056.60,349.88,362.27,12.32,0000 0000 0000 0000 000000
2015-02-06 12:18:35,0.15,1.86,0.00,17.27,22.69,25.77,5.07,27.65,1039.46,2047.00,2738.70,2825.18,3055.48,350.03,362.79,12.35,0000 0000 0000 0000 000000
2015-02-06 12:23:36,0.13,1.86,0.00,17.24,22.69,25.58,5.06,27.63,1039.33,2047.00,2737.22,2824.02,3054.13,350.08,362.61,12.38,0000 0000 0000 0000 000000
2015-02-06 12:28:37,0.16,1.87,0.00,17.31,22.69,25.67,4.97,27.58,1039.27,2047.00,2735.72,2822.93,3052.88,349.84,362.01,12.40,0000 0000 0000 0000 000000
2015-02-06 12:33:38,0.16,1.87,0.00,17.29,22.69,25.59,4.99,27.54,1039.25,2047.00,2734.19,2821.76,3051.68,350.31,362.64,12.43,0000 0000 0000 0000 000000
2015-02-06 12:38:40,0.16,1.88,0.00,17.31,22.68,25.66,4.97,27.73,1039.32,2047.00,2732.60,2820.65,3050.50,349.29,361.56,12.46,0000 0000 0000 0000 000000
2015-02-06 12:43:41,0.14,1.88,0.00,17.25,22.67,25.62,5.03,27.63,1039.38,2047.00,2731.06,2819.48,3049.28,350.37,362.84,12.49,0000 0000 0000 0000 000000
2015-02-06 12:48:43,0.15,1.88,0.00,17.27,22.68,25.60,5.09,27.64,1039.44,2047.00,2729.59,2818.43,3048.00,349.84,362.32,12.52,0000 0000 0000 0000 000000
2015-02-06 12:53:44,0.15,1.89,0.00,17.28,22.68,25.66,4.99,27.57,1039.46,2047.00,2728.05,2817.23,3046.66,350.06,362.40,12.55,0000 0000 0000 0000 000000
2015-02-06 12:58:45,0.15,1.89,0.00,17.28,22.68,25.59,5.00,27.57,1039.14,2047.00,2726.46,2816.08,3045.42,349.85,362.23,12.58,0000 0000 0000 0000 000000